status,avgMeasuredTime,avgSpeed,extID,medianMeasuredTime,TIMESTAMP,vehicleCount,_id,REPORT_ID
OK,51,58,889,51,2014-08-01T08:00:00,0,20746944,195843
OK,51,58,889,51,2014-08-01T08:05:00,0,20747393,195843
OK,51,58,889,51,2014-08-01T08:10:00,0,20747766,195843
OK,117,25,889,117,2014-08-01T08:15:00,1,20748215,195843
OK,117,25,889,117,2014-08-01T08:20:00,1,20748664,195843
OK,117,25,889,117,2014-08-01T08:25:00,0,20749113,195843
OK,117,25,889,117,2014-08-01T08:30:00,0,20749562,195843
OK,100,30,889,100,2014-08-01T08:35:00,1,20750011,195843
OK,82,36,889,82,2014-08-01T08:40:00,2,20750460,195843
OK,58,51,889,58,2014-08-01T08:45:00,2,20750909,195843
OK,53,56,889,53,2014-08-01T08:50:00,1,20751358,195843
OK,53,56,889,53,2014-08-01T08:55:00,0,20751807,195843
OK,53,56,889,53,2014-08-01T09:00:00,0,20752256,195843
OK,188,15,889,188,2014-08-01T09:05:00,1,20752705,195843
OK,188,15,889,188,2014-08-01T09:10:00,0,20753154,195843
OK,190,15,889,190,2014-08-01T09:20:00,0,20754052,195843
OK,190,15,889,190,2014-08-01T09:25:00,0,20754501,195843
OK,190,15,889,190,2014-08-01T09:30:00,0,20754950,195843
OK,190,15,889,190,2014-08-01T09:35:00,0,20755399,195843
OK,190,15,889,190,2014-08-01T09:40:00,0,20755848,195843
OK,190,15,889,190,2014-08-01T09:45:00,0,20756297,195843
OK,118,25,889,118,2014-08-01T09:50:00,1,20756746,195843
OK,118,25,889,118,2014-08-01T09:55:00,1,20757195,195843
OK,118,25,889,118,2014-08-01T10:00:00,0,20757644,195843
OK,118,25,889,118,2014-08-01T10:05:00,0,20758093,195843
OK,118,25,889,118,2014-08-01T10:10:00,0,20758542,195843
OK,118,25,889,118,2014-08-01T10:15:00,0,20758991,195843
OK,118,25,889,118,2014-08-01T10:20:00,0,20759440,195843
OK,118,25,889,118,2014-08-01T10:25:00,0,20759889,195843
OK,118,25,889,118,2014-08-01T10:30:00,0,20760338,195843
OK,118,25,889,118,2014-08-01T10:35:00,0,20760787,195843
OK,110,27,889,110,2014-08-01T10:40:00,1,20761236,195843
OK,110,27,889,110,2014-08-01T10:45:00,1,20761685,195843
OK,143,21,889,143,2014-08-01T10:50:00,1,20762134,195843
OK,143,21,889,143,2014-08-01T10:55:00,1,20762583,195843
OK,143,21,889,143,2014-08-01T11:00:00,0,20763032,195843
OK,143,21,889,143,2014-08-01T11:05:00,0,20763481,195843
OK,143,21,889,143,2014-08-01T11:10:00,0,20763930,195843
OK,84,35,889,84,2014-08-01T11:15:00,1,20764378,195843
OK,84,35,889,84,2014-08-01T11:20:00,1,20764827,195843
OK,117,25,889,117,2014-08-01T11:25:00,1,20765276,195843
OK,117,25,889,117,2014-08-01T11:30:00,1,20765725,195843
OK,117,25,889,117,2014-08-01T11:35:00,0,20766174,195843
OK,117,25,889,117,2014-08-01T11:40:00,0,20766623,195843
OK,124,24,889,124,2014-08-01T11:45:00,1,20767072,195843
OK,124,24,889,124,2014-08-01T11:50:00,1,20767521,195843
OK,124,24,889,124,2014-08-01T11:55:00,0,20767970,195843
OK,124,24,889,124,2014-08-01T12:00:00,0,20768419,195843
OK,124,24,889,124,2014-08-01T12:05:00,0,20768868,195843
OK,133,22,889,133,2014-08-01T12:10:00,1,20769317,195843
OK,133,22,889,133,2014-08-01T12:15:00,1,20769766,195843
OK,133,22,889,133,2014-08-01T12:20:00,0,20770215,195843
OK,133,22,889,133,2014-08-01T12:25:00,0,20770664,195843
OK,133,22,889,133,2014-08-01T12:30:00,0,20771113,195843
OK,133,22,889,133,2014-08-01T12:35:00,0,20771562,195843
OK,75,40,889,75,2014-08-01T12:40:00,1,20772011,195843
OK,75,40,889,75,2014-08-01T12:45:00,1,20772460,195843
OK,75,40,889,75,2014-08-01T12:50:00,0,20772909,195843
OK,68,44,889,68,2014-08-01T12:55:00,2,20773358,195843
OK,68,44,889,68,2014-08-01T13:00:00,2,20773807,195843
OK,107,28,889,107,2014-08-01T13:05:00,3,20774256,195843
OK,107,28,889,107,2014-08-01T13:10:00,3,20774705,195843
OK,142,21,889,142,2014-08-01T13:15:00,6,20775154,195843
OK,142,21,889,142,2014-08-01T13:20:00,6,20775603,195843
OK,153,19,889,153,2014-08-01T13:25:00,0,20776052,195843
OK,153,19,889,153,2014-08-01T13:30:00,0,20776501,195843
OK,153,19,889,153,2014-08-01T13:35:00,0,20776950,195843
OK,153,19,889,153,2014-08-01T13:40:00,0,20777399,195843
OK,153,19,889,153,2014-08-01T13:45:00,0,20777848,195843
OK,153,19,889,153,2014-08-01T13:50:00,0,20778297,195843
OK,153,19,889,153,2014-08-01T14:00:00,0,20779195,195843
OK,153,19,889,153,2014-08-01T14:05:00,0,20779644,195843
OK,153,19,889,153,2014-08-01T14:10:00,0,20780093,195843
OK,153,19,889,153,2014-08-01T14:15:00,0,20780542,195843
OK,153,19,889,153,2014-08-01T14:20:00,0,20780991,195843
OK,153,19,889,153,2014-08-01T14:25:00,0,20781440,195843
OK,153,19,889,153,2014-08-01T14:30:00,0,20781889,195843
OK,153,19,889,153,2014-08-01T14:35:00,0,20782338,195843
OK,153,19,889,153,2014-08-01T14:40:00,0,20782787,195843
OK,153,19,889,153,2014-08-01T14:45:00,0,20783236,195843
OK,122,24,889,122,2014-08-01T14:50:00,1,20783685,195843
OK,122,24,889,122,2014-08-01T14:55:00,1,20784134,195843
OK,122,24,889,122,2014-08-01T15:00:00,0,20784583,195843
OK,122,24,889,122,2014-08-01T15:05:00,0,20785032,195843
OK,122,24,889,122,2014-08-01T15:10:00,0,20785481,195843
OK,122,24,889,122,2014-08-01T15:15:00,0,20785930,195843
OK,156,19,889,156,2014-08-01T15:20:00,1,20786379,195843
OK,156,19,889,156,2014-08-01T15:25:00,1,20786828,195843
OK,156,19,889,156,2014-08-01T15:30:00,0,20787277,195843
OK,156,19,889,156,2014-08-01T15:35:00,0,20787726,195843
OK,156,19,889,156,2014-08-01T15:40:00,0,20788175,195843
OK,156,19,889,156,2014-08-01T15:45:00,0,20788624,195843
OK,156,19,889,156,2014-08-01T15:50:00,0,20789073,195843
OK,156,19,889,156,2014-08-01T15:55:00,0,20789522,195843
OK,156,19,889,156,2014-08-01T16:00:00,0,20789971,195843
OK,156,19,889,156,2014-08-01T16:05:00,0,20790420,195843
OK,136,22,889,136,2014-08-01T16:10:00,1,20790869,195843
OK,136,22,889,136,2014-08-01T16:15:00,1,20791318,195843
OK,136,22,889,136,2014-08-01T16:20:00,0,20791767,195843
OK,160,18,889,160,2014-08-01T16:25:00,1,20792216,195843
OK,160,18,889,160,2014-08-01T16:30:00,1,20792665,195843
OK,160,18,889,160,2014-08-01T16:35:00,0,20793114,195843
OK,160,18,889,160,2014-08-01T16:40:00,0,20793563,195843
OK,160,18,889,160,2014-08-01T16:45:00,0,20794012,195843
OK,160,18,889,160,2014-08-01T16:50:00,0,20794461,195843
OK,160,18,889,160,2014-08-01T16:55:00,0,20794910,195843
OK,160,18,889,160,2014-08-01T17:00:00,0,20795359,195843
OK,160,18,889,160,2014-08-01T17:05:00,0,20795808,195843
OK,160,18,889,160,2014-08-01T17:10:00,0,20796257,195843
OK,160,18,889,160,2014-08-01T17:15:00,0,20796706,195843
OK,160,18,889,160,2014-08-01T17:20:00,0,20797155,195843
OK,160,18,889,160,2014-08-01T17:25:00,0,20797604,195843
OK,160,18,889,160,2014-08-01T17:30:00,0,20798053,195843
OK,160,18,889,160,2014-08-01T17:35:00,0,20798502,195843
OK,160,18,889,160,2014-08-01T17:40:00,0,20798951,195843
OK,101,29,889,101,2014-08-01T17:45:00,1,20799400,195843
OK,101,29,889,101,2014-08-01T17:50:00,0,20799849,195843
OK,101,29,889,101,2014-08-01T17:55:00,0,20800298,195843
OK,101,29,889,101,2014-08-01T18:00:00,0,20800747,195843
OK,101,29,889,101,2014-08-01T18:05:00,0,20801196,195843
OK,101,29,889,101,2014-08-01T18:10:00,0,20801645,195843
OK,101,29,889,101,2014-08-01T18:15:00,0,20802094,195843
OK,101,29,889,101,2014-08-01T18:20:00,0,20802543,195843
OK,101,29,889,101,2014-08-01T18:25:00,0,20802992,195843
OK,101,29,889,101,2014-08-01T18:30:00,0,20803441,195843
OK,101,29,889,101,2014-08-01T18:35:00,0,20803890,195843
OK,101,29,889,101,2014-08-01T18:40:00,0,20804339,195843
OK,77,39,889,77,2014-08-01T18:45:00,1,20804788,195843
OK,76,39,889,76,2014-08-01T18:50:00,2,20805237,195843
OK,76,39,889,76,2014-08-01T18:55:00,0,20805686,195843
OK,76,39,889,76,2014-08-01T19:00:00,0,20806135,195843
OK,76,39,889,76,2014-08-01T19:05:00,0,20806584,195843
OK,76,39,889,76,2014-08-01T19:10:00,0,20807033,195843
OK,76,39,889,76,2014-08-01T19:15:00,0,20807482,195843
OK,76,39,889,76,2014-08-01T19:20:00,0,20807931,195843
OK,76,39,889,76,2014-08-01T19:25:00,0,20808380,195843
OK,95,31,889,95,2014-08-01T19:30:00,1,20808829,195843
OK,95,31,889,95,2014-08-01T19:35:00,1,20809278,195843
OK,95,31,889,95,2014-08-01T19:40:00,0,20809727,195843
OK,95,31,889,95,2014-08-01T19:45:00,0,20810176,195843
OK,95,31,889,95,2014-08-01T19:50:00,0,20810625,195843
OK,95,31,889,95,2014-08-01T19:55:00,0,20811074,195843
OK,95,31,889,95,2014-08-01T22:00:00,0,20816803,195843
OK,95,31,889,95,2014-08-01T22:05:00,0,20817252,195843
OK,43,69,889,43,2014-08-02T00:00:00,0,20823242,195843
OK,43,69,889,43,2014-08-02T00:05:00,0,20823691,195843
OK,43,69,889,43,2014-08-02T00:10:00,0,20824140,195843
OK,43,69,889,43,2014-08-02T00:15:00,0,20824589,195843
OK,43,69,889,43,2014-08-02T00:20:00,0,20825038,195843
OK,43,69,889,43,2014-08-02T00:25:00,0,20825487,195843
OK,43,69,889,43,2014-08-02T00:30:00,0,20825936,195843
OK,43,69,889,43,2014-08-02T00:35:00,0,20826385,195843
OK,43,69,889,43,2014-08-02T00:40:00,0,20826834,195843
OK,43,69,889,43,2014-08-02T00:45:00,0,20827283,195843
OK,43,69,889,43,2014-08-02T00:50:00,0,20827732,195843
OK,43,69,889,43,2014-08-02T00:55:00,0,20828181,195843
OK,43,69,889,43,2014-08-02T01:00:00,0,20828630,195843
OK,43,69,889,43,2014-08-02T01:05:00,0,20829079,195843
OK,43,69,889,43,2014-08-02T01:10:00,0,20829528,195843
OK,55,54,889,55,2014-08-02T01:15:00,1,20829977,195843
OK,59,50,889,59,2014-08-02T01:20:00,2,20830426,195843
OK,59,50,889,59,2014-08-02T01:25:00,0,20830875,195843
OK,59,50,889,59,2014-08-02T01:30:00,0,20831324,195843
OK,59,50,889,59,2014-08-02T01:35:00,0,20831773,195843
OK,59,50,889,59,2014-08-02T01:40:00,0,20832222,195843
OK,59,50,889,59,2014-08-02T01:45:00,0,20832671,195843
OK,59,50,889,59,2014-08-02T01:50:00,0,20833120,195843
OK,59,50,889,59,2014-08-02T01:55:00,0,20833569,195843
OK,59,50,889,59,2014-08-02T02:00:00,0,20834018,195843
OK,59,50,889,59,2014-08-02T02:05:00,0,20834467,195843
OK,59,50,889,59,2014-08-02T02:10:00,0,20834916,195843
OK,59,50,889,59,2014-08-02T02:15:00,0,20835365,195843
OK,59,50,889,59,2014-08-02T02:20:00,0,20835814,195843
OK,59,50,889,59,2014-08-02T02:25:00,0,20836263,195843
OK,59,50,889,59,2014-08-02T02:30:00,0,20836712,195843
OK,59,50,889,59,2014-08-02T02:35:00,0,20837161,195843
OK,59,50,889,59,2014-08-02T02:40:00,0,20837610,195843
OK,59,50,889,59,2014-08-02T02:45:00,0,20838059,195843
OK,59,50,889,59,2014-08-02T02:50:00,0,20838508,195843
OK,59,50,889,59,2014-08-02T02:55:00,0,20838957,195843
OK,59,50,889,59,2014-08-02T03:00:00,0,20839406,195843
OK,59,50,889,59,2014-08-02T03:05:00,0,20839855,195843
OK,59,50,889,59,2014-08-02T03:10:00,0,20840304,195843
OK,59,50,889,59,2014-08-02T03:15:00,0,20840753,195843
OK,59,50,889,59,2014-08-02T03:20:00,0,20841202,195843
OK,59,50,889,59,2014-08-02T03:25:00,0,20841651,195843
OK,59,50,889,59,2014-08-02T03:30:00,0,20842100,195843
OK,59,50,889,59,2014-08-02T03:35:00,0,20842549,195843
OK,59,50,889,59,2014-08-02T03:40:00,0,20842998,195843
OK,59,50,889,59,2014-08-02T03:45:00,0,20843447,195843
OK,59,50,889,59,2014-08-02T03:50:00,0,20843896,195843
OK,59,50,889,59,2014-08-02T03:55:00,0,20844345,195843
OK,59,50,889,59,2014-08-02T06:00:00,0,20851799,195843
OK,59,50,889,59,2014-08-02T06:05:00,0,20852248,195843
OK,59,50,889,59,2014-08-02T06:10:00,0,20852697,195843
OK,59,50,889,59,2014-08-02T06:15:00,0,20853146,195843
OK,59,50,889,59,2014-08-02T06:20:00,0,20853595,195843
OK,59,50,889,59,2014-08-02T06:25:00,0,20854044,195843
OK,59,50,889,59,2014-08-02T06:30:00,0,20854493,195843
OK,59,50,889,59,2014-08-02T06:35:00,0,20854942,195843
OK,59,50,889,59,2014-08-02T06:40:00,0,20855391,195843
OK,59,50,889,59,2014-08-02T06:45:00,0,20855840,195843
OK,59,50,889,59,2014-08-02T06:50:00,0,20856289,195843
OK,59,50,889,59,2014-08-02T06:55:00,0,20856738,195843
OK,59,50,889,59,2014-08-02T07:00:00,0,20857187,195843
OK,59,50,889,59,2014-08-02T07:05:00,0,20857636,195843
OK,59,50,889,59,2014-08-02T07:10:00,0,20858085,195843
OK,59,50,889,59,2014-08-02T07:15:00,0,20858534,195843
OK,59,50,889,59,2014-08-02T07:20:00,0,20858983,195843
OK,59,50,889,59,2014-08-02T07:25:00,0,20859432,195843
OK,59,50,889,59,2014-08-02T07:30:00,0,20859881,195843
OK,59,50,889,59,2014-08-02T07:35:00,0,20860330,195843
OK,59,50,889,59,2014-08-02T07:40:00,0,20860779,195843
OK,59,50,889,59,2014-08-02T07:45:00,0,20861228,195843
OK,59,50,889,59,2014-08-02T07:50:00,0,20861677,195843
OK,59,50,889,59,2014-08-02T07:55:00,0,20862126,195843
OK,59,50,889,59,2014-08-02T08:00:00,0,20862575,195843
OK,59,50,889,59,2014-08-02T08:05:00,0,20863024,195843
OK,59,50,889,59,2014-08-02T08:10:00,0,20863473,195843
OK,59,50,889,59,2014-08-02T08:15:00,0,20863922,195843
OK,59,50,889,59,2014-08-02T08:20:00,0,20864371,195843
OK,59,50,889,59,2014-08-02T08:25:00,0,20864820,195843
OK,59,50,889,59,2014-08-02T08:30:00,0,20865269,195843
OK,59,50,889,59,2014-08-02T08:35:00,0,20865718,195843
OK,59,50,889,59,2014-08-02T08:40:00,0,20866167,195843
OK,59,50,889,59,2014-08-02T08:45:00,0,20866616,195843
OK,59,50,889,59,2014-08-02T08:50:00,0,20867065,195843
OK,59,50,889,59,2014-08-02T08:55:00,0,20867514,195843
OK,541,5,889,541,2014-08-02T09:00:00,2,20867963,195843
OK,541,5,889,541,2014-08-02T09:05:00,2,20868412,195843
OK,541,5,889,541,2014-08-02T09:10:00,0,20868861,195843
OK,541,5,889,541,2014-08-02T09:15:00,0,20869310,195843
OK,541,5,889,541,2014-08-02T09:20:00,0,20869759,195843
OK,541,5,889,541,2014-08-02T09:25:00,0,20870208,195843
OK,541,5,889,541,2014-08-02T09:30:00,0,20870657,195843
OK,541,5,889,541,2014-08-02T09:35:00,0,20871106,195843
OK,172,17,889,172,2014-08-02T09:40:00,2,20871555,195843
OK,117,25,889,117,2014-08-02T09:45:00,1,20872004,195843
OK,117,25,889,117,2014-08-02T09:50:00,0,20872453,195843
OK,117,25,889,117,2014-08-02T09:55:00,0,20872902,195843
OK,117,25,889,117,2014-08-02T10:00:00,0,20873351,195843
OK,117,25,889,117,2014-08-02T10:05:00,0,20873800,195843
OK,117,25,889,117,2014-08-02T10:10:00,0,20874249,195843
OK,117,25,889,117,2014-08-02T10:15:00,0,20874698,195843
OK,117,25,889,117,2014-08-02T10:20:00,0,20875147,195843
OK,117,25,889,117,2014-08-02T10:25:00,0,20875596,195843
OK,117,25,889,117,2014-08-02T10:30:00,0,20876045,195843
OK,117,25,889,117,2014-08-02T10:35:00,0,20876494,195843
OK,117,25,889,117,2014-08-02T10:40:00,0,20876943,195843
OK,117,25,889,117,2014-08-02T10:45:00,0,20877392,195843
OK,117,25,889,117,2014-08-02T10:50:00,0,20877841,195843
OK,117,25,889,117,2014-08-02T10:55:00,0,20878290,195843
OK,117,25,889,117,2014-08-02T11:00:00,0,20878739,195843
OK,117,25,889,117,2014-08-02T11:05:00,0,20879188,195843
OK,117,25,889,117,2014-08-02T11:10:00,0,20879637,195843
OK,117,25,889,117,2014-08-02T11:15:00,0,20880086,195843
OK,117,25,889,117,2014-08-02T11:20:00,0,20880535,195843
OK,117,25,889,117,2014-08-02T11:25:00,0,20880984,195843
OK,117,25,889,117,2014-08-02T11:30:00,0,20881433,195843
OK,117,25,889,117,2014-08-02T11:35:00,0,20881882,195843
OK,117,25,889,117,2014-08-02T11:40:00,0,20882331,195843
OK,117,25,889,117,2014-08-02T11:45:00,0,20882780,195843
OK,117,25,889,117,2014-08-02T11:50:00,0,20883229,195843
OK,117,25,889,117,2014-08-02T11:55:00,0,20883678,195843
OK,117,25,889,117,2014-08-02T12:00:00,0,20884127,195843
OK,117,25,889,117,2014-08-02T12:05:00,0,20884576,195843
OK,114,26,889,114,2014-08-02T12:10:00,1,20885025,195843
OK,114,26,889,114,2014-08-02T12:15:00,1,20885474,195843
OK,114,26,889,114,2014-08-02T12:20:00,0,20885923,195843
OK,114,26,889,114,2014-08-02T12:25:00,0,20886372,195843
OK,114,26,889,114,2014-08-02T12:30:00,0,20886821,195843
OK,114,26,889,114,2014-08-02T12:35:00,0,20887270,195843
OK,114,26,889,114,2014-08-02T12:40:00,0,20887719,195843
OK,114,26,889,114,2014-08-02T12:45:00,0,20888168,195843
OK,105,28,889,105,2014-08-02T12:50:00,1,20888617,195843
OK,105,28,889,105,2014-08-02T12:55:00,0,20889066,195843
OK,105,28,889,105,2014-08-02T13:00:00,0,20889515,195843
OK,105,28,889,105,2014-08-02T13:05:00,0,20889964,195843
OK,105,28,889,105,2014-08-02T13:10:00,0,20890413,195843
OK,105,28,889,105,2014-08-02T13:15:00,0,20890862,195843
OK,105,28,889,105,2014-08-02T13:20:00,0,20891311,195843
OK,105,28,889,105,2014-08-02T13:25:00,0,20891760,195843
OK,105,28,889,105,2014-08-02T13:30:00,0,20892209,195843
OK,105,28,889,105,2014-08-02T13:35:00,0,20892658,195843
OK,105,28,889,105,2014-08-02T13:40:00,0,20893107,195843
OK,105,28,889,105,2014-08-02T13:45:00,0,20893556,195843
OK,105,28,889,105,2014-08-02T13:50:00,0,20894005,195843
OK,105,28,889,105,2014-08-02T13:55:00,0,20894454,195843
OK,105,28,889,105,2014-08-02T14:00:00,0,20894903,195843
OK,105,28,889,105,2014-08-02T14:05:00,0,20895352,195843
OK,105,28,889,105,2014-08-02T14:10:00,0,20895801,195843
OK,105,28,889,105,2014-08-02T14:15:00,0,20896250,195843
OK,105,28,889,105,2014-08-02T14:20:00,0,20896699,195843
OK,105,28,889,105,2014-08-02T14:25:00,0,20897148,195843
OK,105,28,889,105,2014-08-02T14:30:00,0,20897597,195843
OK,105,28,889,105,2014-08-02T14:35:00,0,20898046,195843
OK,105,28,889,105,2014-08-02T14:40:00,0,20898495,195843
OK,105,28,889,105,2014-08-02T14:45:00,0,20898944,195843
OK,105,28,889,105,2014-08-02T14:50:00,0,20899393,195843
OK,105,28,889,105,2014-08-02T14:55:00,0,20899842,195843
OK,105,28,889,105,2014-08-02T15:00:00,0,20900291,195843
OK,105,28,889,105,2014-08-02T15:05:00,0,20900740,195843
OK,105,28,889,105,2014-08-02T15:10:00,0,20901189,195843
OK,105,28,889,105,2014-08-02T15:15:00,0,20901638,195843
OK,105,28,889,105,2014-08-02T15:20:00,0,20902087,195843
OK,105,28,889,105,2014-08-02T15:25:00,0,20902536,195843
OK,105,28,889,105,2014-08-02T15:30:00,0,20902985,195843
OK,105,28,889,105,2014-08-02T15:35:00,0,20903434,195843
OK,105,28,889,105,2014-08-02T15:40:00,0,20903883,195843
OK,105,28,889,105,2014-08-02T15:45:00,0,20904332,195843
OK,105,28,889,105,2014-08-02T15:50:00,0,20904781,195843
OK,105,28,889,105,2014-08-02T15:55:00,0,20905230,195843
OK,105,28,889,105,2014-08-02T16:00:00,0,20905679,195843
OK,105,28,889,105,2014-08-02T16:05:00,0,20906128,195843
OK,105,28,889,105,2014-08-02T16:10:00,0,20906577,195843
OK,105,28,889,105,2014-08-02T16:15:00,0,20907026,195843
OK,105,28,889,105,2014-08-02T16:20:00,0,20907475,195843
OK,105,28,889,105,2014-08-02T16:25:00,0,20907924,195843
OK,105,28,889,105,2014-08-02T16:30:00,0,20908373,195843
OK,105,28,889,105,2014-08-02T16:35:00,0,20908822,195843
OK,105,28,889,105,2014-08-02T16:40:00,0,20909271,195843
OK,105,28,889,105,2014-08-02T16:45:00,0,20909720,195843
OK,105,28,889,105,2014-08-02T16:50:00,0,20910169,195843
OK,105,28,889,105,2014-08-02T16:55:00,0,20910618,195843
OK,105,28,889,105,2014-08-02T17:00:00,0,20911067,195843
OK,105,28,889,105,2014-08-02T17:05:00,0,20911516,195843
OK,105,28,889,105,2014-08-02T17:10:00,0,20911965,195843
OK,105,28,889,105,2014-08-02T17:15:00,0,20912414,195843
OK,105,28,889,105,2014-08-02T17:20:00,0,20912863,195843
OK,105,28,889,105,2014-08-02T17:25:00,0,20913312,195843
OK,105,28,889,105,2014-08-02T17:30:00,0,20913761,195843
OK,105,28,889,105,2014-08-02T17:35:00,0,20914210,195843
OK,105,28,889,105,2014-08-02T17:40:00,0,20914659,195843
OK,105,28,889,105,2014-08-02T17:45:00,0,20915108,195843
OK,105,28,889,105,2014-08-02T17:50:00,0,20915557,195843
OK,105,28,889,105,2014-08-02T17:55:00,0,20916006,195843
OK,105,28,889,105,2014-08-02T18:00:00,0,20916455,195843
OK,105,28,889,105,2014-08-02T18:05:00,0,20916904,195843
OK,105,28,889,105,2014-08-02T18:10:00,0,20917353,195843
OK,105,28,889,105,2014-08-02T18:15:00,0,20917802,195843
OK,105,28,889,105,2014-08-02T18:20:00,0,20918251,195843
OK,105,28,889,105,2014-08-02T18:25:00,0,20918700,195843
OK,105,28,889,105,2014-08-02T18:30:00,0,20919149,195843
OK,105,28,889,105,2014-08-02T18:35:00,0,20919598,195843
OK,105,28,889,105,2014-08-02T18:40:00,0,20920047,195843
OK,105,28,889,105,2014-08-02T18:45:00,0,20920496,195843
OK,105,28,889,105,2014-08-02T18:50:00,0,20920945,195843
OK,105,28,889,105,2014-08-02T18:55:00,0,20921394,195843
OK,105,28,889,105,2014-08-02T19:00:00,0,20921843,195843
OK,105,28,889,105,2014-08-02T19:05:00,0,20922292,195843
OK,105,28,889,105,2014-08-02T19:10:00,0,20922741,195843
OK,105,28,889,105,2014-08-02T19:15:00,0,20923190,195843
OK,105,28,889,105,2014-08-02T19:20:00,0,20923639,195843
OK,105,28,889,105,2014-08-02T19:25:00,0,20924088,195843
OK,105,28,889,105,2014-08-02T19:30:00,0,20924537,195843
OK,2605,1,889,2605,2014-08-02T19:35:00,2,20924986,195843
OK,2605,1,889,2605,2014-08-02T19:40:00,0,20925435,195843
OK,2605,1,889,2605,2014-08-02T19:45:00,0,20925884,195843
OK,2605,1,889,2605,2014-08-02T19:50:00,0,20926333,195843
OK,2605,1,889,2605,2014-08-02T19:55:00,0,20926782,195843
OK,2605,1,889,2605,2014-08-02T20:00:00,0,20927231,195843
OK,2605,1,889,2605,2014-08-02T20:05:00,0,20927680,195843
OK,2605,1,889,2605,2014-08-02T20:10:00,0,20928129,195843
OK,2605,1,889,2605,2014-08-02T20:15:00,0,20928578,195843
OK,2605,1,889,2605,2014-08-02T20:20:00,0,20929027,195843
OK,2605,1,889,2605,2014-08-02T20:25:00,0,20929476,195843
OK,2605,1,889,2605,2014-08-02T20:30:00,0,20929925,195843
OK,2605,1,889,2605,2014-08-02T20:35:00,0,20930374,195843
OK,2605,1,889,2605,2014-08-02T20:40:00,0,20930823,195843
OK,2605,1,889,2605,2014-08-02T20:45:00,0,20931272,195843
OK,2605,1,889,2605,2014-08-02T20:50:00,0,20931721,195843
OK,2605,1,889,2605,2014-08-02T20:55:00,0,20932170,195843
OK,2605,1,889,2605,2014-08-02T21:00:00,0,20932619,195843
OK,2605,1,889,2605,2014-08-02T21:05:00,0,20933068,195843
OK,2605,1,889,2605,2014-08-02T21:10:00,0,20933517,195843
OK,2605,1,889,2605,2014-08-02T21:15:00,0,20933966,195843
OK,2605,1,889,2605,2014-08-02T21:20:00,0,20934415,195843
OK,2605,1,889,2605,2014-08-02T21:25:00,0,20934864,195843
OK,2605,1,889,2605,2014-08-02T21:30:00,0,20935313,195843
OK,2605,1,889,2605,2014-08-02T21:35:00,0,20935762,195843
OK,2605,1,889,2605,2014-08-02T21:40:00,0,20936211,195843
OK,2605,1,889,2605,2014-08-02T21:45:00,0,20936660,195843
OK,2605,1,889,2605,2014-08-02T21:50:00,0,20937109,195843
OK,2605,1,889,2605,2014-08-02T21:55:00,0,20937558,195843
OK,2605,1,889,2605,2014-08-02T22:00:00,0,20938007,195843
OK,2605,1,889,2605,2014-08-02T22:05:00,0,20938456,195843
OK,2605,1,889,2605,2014-08-02T22:10:00,0,20938905,195843
OK,2605,1,889,2605,2014-08-02T22:15:00,0,20939354,195843
OK,2605,1,889,2605,2014-08-02T22:20:00,0,20939803,195843
OK,2605,1,889,2605,2014-08-02T22:25:00,0,20940252,195843
OK,2605,1,889,2605,2014-08-02T22:30:00,0,20940701,195843
OK,2605,1,889,2605,2014-08-02T22:35:00,0,20941150,195843
OK,2605,1,889,2605,2014-08-02T22:40:00,0,20941599,195843
OK,2605,1,889,2605,2014-08-02T22:45:00,0,20942048,195843
OK,2605,1,889,2605,2014-08-02T22:50:00,0,20942497,195843
OK,2605,1,889,2605,2014-08-02T22:55:00,0,20942946,195843
OK,2605,1,889,2605,2014-08-02T23:00:00,0,20943395,195843
OK,2605,1,889,2605,2014-08-02T23:10:00,0,20943844,195843
OK,2605,1,889,2605,2014-08-02T23:15:00,0,20944293,195843
OK,2605,1,889,2605,2014-08-02T23:20:00,0,20944742,195843
OK,2605,1,889,2605,2014-08-02T23:25:00,0,20945191,195843
OK,2605,1,889,2605,2014-08-02T23:30:00,0,20945640,195843
OK,2605,1,889,2605,2014-08-02T23:35:00,0,20946089,195843
OK,2605,1,889,2605,2014-08-02T23:40:00,0,20946538,195843
OK,2605,1,889,2605,2014-08-02T23:45:00,0,20946987,195843
OK,2605,1,889,2605,2014-08-02T23:50:00,0,20947436,195843
OK,2605,1,889,2605,2014-08-02T23:55:00,0,20947885,195843
OK,2605,1,889,2605,2014-08-03T00:00:00,0,20948334,195843
OK,2605,1,889,2605,2014-08-03T00:05:00,0,20948783,195843
OK,2605,1,889,2605,2014-08-03T00:10:00,0,20949231,195843
OK,2605,1,889,2605,2014-08-03T00:15:00,0,20949680,195843
OK,2605,1,889,2605,2014-08-03T00:20:00,0,20950129,195843
OK,2605,1,889,2605,2014-08-03T00:25:00,0,20950578,195843
OK,2605,1,889,2605,2014-08-03T00:30:00,0,20951027,195843
OK,2605,1,889,2605,2014-08-03T00:35:00,0,20951476,195843
OK,2605,1,889,2605,2014-08-03T00:40:00,0,20951925,195843
OK,2605,1,889,2605,2014-08-03T00:45:00,0,20952374,195843
OK,2605,1,889,2605,2014-08-03T00:50:00,0,20952823,195843
OK,2605,1,889,2605,2014-08-03T00:55:00,0,20953272,195843
OK,2605,1,889,2605,2014-08-03T01:00:00,0,20953721,195843
OK,2605,1,889,2605,2014-08-03T01:05:00,0,20954170,195843
OK,2605,1,889,2605,2014-08-03T01:10:00,0,20954619,195843